FW3021 Weather Reports


Display with metric or nautical units.
time (UTC)temp
F
wind
direction
speed
MPH
gust
MPH
rain 1hr
in
rain 24hr
in
rain mn
in
humidity
%
barometer
mb
20260502164037 37 203 3.0 4.0 0.00 0.00 0.00 63 1014.7
20260502163017 37 225 4.0 5.0 0.00 0.00 0.00 63 1014.8
20260502162017 36 203 4.0 5.0 0.00 0.00 0.00 63 1014.8
20260502161057 36 225 3.0 4.0 0.00 0.00 0.00 61 1015.0
20260502152017 36 203 4.0 5.0 0.00 0.00 0.00 62 1015.5
20260502151017 36 225 4.0 4.0 0.00 0.00 0.00 62 1015.6
20260502123016 33 0.0 0.0 0.00 0.00 0.00 63 1016.6
20260502122016 33 0.0 2.0 0.00 0.00 0.00 61 1016.5
20260502121036 32 0.0 0.0 0.00 0.00 0.00 66 1016.4
20260502115016 29 0 2.0 2.0 0.00 0.00 0.00 67 1016.5
20260502114016 28 0 2.0 2.0 0.00 0.00 0.00 67 1016.5
20260502113036 26 0 2.0 3.0 0.00 0.00 0.00 68 1016.4
20260502112016 26 0 2.0 3.0 0.00 0.00 0.00 68 1016.4
20260502111016 25 0 2.0 3.0 0.00 0.00 0.00 69 1016.4
20260502110016 25 0 3.0 4.0 0.00 0.00 0.00 69 1016.4
20260502105016 25 0 3.0 4.0 0.00 0.00 0.00 68 1016.5
20260502104036 25 0 3.0 4.0 0.00 0.00 0.00 68 1016.5
20260502103016 25 0 3.0 4.0 0.00 0.00 0.00 67 1016.5
20260502102036 26 0 3.0 4.0 0.00 0.00 0.00 66 1016.5
20260502101016 26 0 3.0 4.0 0.00 0.00 0.00 66 1016.6
20260502091036 26 0 3.0 4.0 0.00 0.00 0.00 67 1016.7
20260502071015 27 338 3.0 4.0 0.00 0.00 0.00 65 1017.1
20260502070015 28 338 2.0 3.0 0.00 0.00 0.00 64 1017.2
20260502065016 28 338 1.0 2.0 0.00 0.00 0.00 65 1017.2
20260502064015 28 338 2.0 3.0 0.00 0.00 0.00 66 1017.3
20260502063016 28 338 3.0 3.0 0.00 0.00 0.00 65 1017.3
20260502062015 29 338 2.0 3.0 0.00 0.00 0.00 64 1017.5
20260502061015 29 338 2.0 3.0 0.00 0.00 0.00 64 1017.4
20260502060016 28 338 3.0 4.0 0.00 0.00 0.00 65 1017.4
20260502055017 29 338 2.0 3.0 0.00 0.00 0.00 65 1017.3
20260502054017 28 338 3.0 4.0 0.00 0.00 0.00 65 1017.2
20260502053017 29 338 3.0 4.0 0.00 0.00 0.00 65 1017.3
20260502052017 29 338 3.0 4.0 0.00 0.00 0.00 65 1017.3
20260502051017 29 338 3.0 3.0 0.00 0.00 0.00 65 1017.4
20260502050017 28 338 2.0 4.0 0.00 0.00 0.00 66 1017.4
20260502045016 28 315 3.0 4.0 0.00 0.00 0.00 64 1017.5
20260502044016 29 270 3.0 6.0 0.00 0.00 0.00 64 1017.5
20260502043015 29 225 3.0 3.0 0.00 0.00 0.00 64 1017.5
20260502042016 29 225 3.0 4.0 0.00 0.00 0.00 62 1017.5
20260502041015 29 225 2.0 3.0 0.00 0.00 0.00 63 1017.5
20260502040016 29 225 2.0 3.0 0.00 0.00 0.00 63 1017.5
20260502035017 30 225 2.0 3.0 0.00 0.00 0.00 62 1017.4
20260502034017 30 225 1.0 3.0 0.00 0.00 0.00 61 1017.4
20260502033017 31 225 2.0 4.0 0.00 0.00 0.00 60 1017.5
20260502032017 31 0.0 1.0 0.00 0.00 0.00 59 1017.8
20260502031018 31 0.0 2.0 0.00 0.00 0.00 60 1017.7
20260502030037 30 225 2.0 3.0 0.00 0.00 0.00 61 1017.6
20260502025017 30 225 3.0 3.0 0.00 0.00 0.00 60 1017.6
20260502024017 31 225 2.0 3.0 0.00 0.00 0.00 60 1017.6
20260502023017 31 225 2.0 3.0 0.00 0.00 0.00 60 1017.6
20260502022017 31 225 2.0 3.0 0.00 0.00 0.00 59 1017.6
20260502021018 32 225 2.0 3.0 0.00 0.00 0.00 58 1017.6
20260502020017 33 225 2.0 3.0 0.00 0.00 0.00 56 1017.7
20260502015017 34 225 2.0 3.0 0.00 0.00 0.00 54 1017.5
20260502014017 34 225 1.0 2.0 0.00 0.00 0.00 53 1017.5
20260502013017 35 225 1.0 2.0 0.00 0.00 0.00 53 1017.5
20260502012017 37 225 2.0 3.0 0.00 0.00 0.00 50 1017.5
20260502011017 37 225 1.0 2.0 0.00 0.00 0.00 48 1017.5
20260502010017 38 225 1.0 2.0 0.00 0.00 0.00 49 1017.5
20260502005037 37 0.0 0.0 0.00 0.00 0.00 52 1017.4
20260502004017 37 0.0 2.0 0.00 0.00 0.00 55 1017.5
20260502003017 37 0.0 1.0 0.00 0.00 0.00 56 1017.5
20260502002017 37 0.0 3.0 0.00 0.00 0.00 57 1017.4
20260502001037 38 225 3.0 4.0 0.00 0.00 0.00 58 1017.4
20260502000017 38 225 2.0 3.0 0.00 0.00 0.00 56 1017.4
20260501235017 38 225 4.0 6.0 0.00 0.00 0.00 55 1017.4
20260501234017 40 225 3.0 5.0 0.00 0.00 0.00 49 1017.5
20260501233017 39 248 3.0 8.0 0.00 0.00 0.00 47 1017.6
20260501232017 39 225 3.0 5.0 0.00 0.00 0.00 52 1017.6
20260501231017 39 225 3.0 5.0 0.00 0.00 0.00 51 1017.6
20260501230037 39 225 3.0 5.0 0.00 0.00 0.00 49 1017.6
20260501225017 40 225 3.0 5.0 0.00 0.00 0.00 48 1017.7
20260501224017 41 225 4.0 8.0 0.00 0.00 0.00 43 1017.6
20260501223017 41 225 4.0 6.0 0.00 0.00 0.00 39 1017.5
20260501222017 41 225 4.0 6.0 0.00 0.00 0.00 42 1017.8
20260501221017 41 225 5.0 10.0 0.00 0.00 0.00 38 1017.8
20260501220017 41 225 5.0 10.0 0.00 0.00 0.00 39 1017.9
20260501215017 40 225 4.0 7.0 0.00 0.00 0.00 41 1017.8
20260501214017 39 225 4.0 6.0 0.00 0.00 0.00 45 1017.9
20260501213017 39 225 4.0 7.0 0.00 0.00 0.00 47 1017.9
20260501212016 39 225 5.0 8.0 0.00 0.00 0.00 46 1017.9
20260501211016 39 225 5.0 7.0 0.00 0.00 0.00 49 1018.0
20260501210017 39 225 5.0 8.0 0.00 0.00 0.00 51 1017.9
20260501205016 38 225 5.0 8.0 0.00 0.00 0.00 54 1018.0
20260501204016 38 225 5.0 8.0 0.00 0.00 0.00 56 1018.1
20260501203017 39 225 6.0 8.0 0.00 0.00 0.00 55 1018.1
20260501202017 39 225 5.0 8.0 0.00 0.00 0.00 54 1018.2
20260501201016 39 225 6.0 9.0 0.00 0.00 0.00 53 1018.0
20260501200016 40 225 6.0 9.0 0.00 0.00 0.00 54 1018.1
20260501195016 39 225 7.0 11.0 0.00 0.00 0.00 49 1018.3
20260501194016 39 225 6.0 10.0 0.00 0.00 0.00 58 1018.2
20260501193017 39 225 7.0 11.0 0.00 0.00 0.00 54 1018.4
20260501192016 39 225 7.0 11.0 0.00 0.00 0.00 57 1018.4
20260501191016 39 225 6.0 10.0 0.00 0.00 0.00 57 1018.5
20260501190016 39 225 7.0 11.0 0.00 0.00 0.00 58 1018.4
20260501185016 40 225 6.0 12.0 0.00 0.00 0.00 57 1018.4
20260501184036 40 225 6.0 9.0 0.00 0.00 0.00 57 1018.4
20260501183016 40 225 7.0 11.0 0.00 0.00 0.00 53 1018.4
20260501182016 40 225 7.0 10.0 0.00 0.00 0.00 57 1018.5
20260501181036 40 225 6.0 9.0 0.00 0.00 0.00 56 1018.6
20260501180016 39 225 5.0 9.0 0.00 0.00 0.00 57 1018.6
20260501175016 39 225 7.0 11.0 0.00 0.00 0.00 54 1018.6
20260501174017 39 225 6.0 10.0 0.00 0.00 0.00 55 1018.7
20260501173016 39 225 7.0 10.0 0.00 0.00 0.00 57 1018.8
20260501172036 40 225 7.0 12.0 0.00 0.00 0.00 53 1018.8
20260501171016 40 225 6.0 9.0 0.00 0.00 0.00 55 1018.9
20260501170016 40 225 5.0 10.0 0.00 0.00 0.00 53 1018.9
20260501165016 39 225 5.0 9.0 0.00 0.00 0.00 57 1018.8